Location: Le Vaud
(46.4779°N, 6.2346°E)
Time: 08:13:38
(UTC+00:00)

CZ-2C R/B - Pass Details

Date: 18 February 2020
Orbit: 668 x 784 km, 98.1° (Epoch: 27 March)

Event Time Altitude Azimuth Distance (km) Brightness Sun altitude
Rises 05:30:09 0° 360° (N) 3,287 5.7 -11.8°
Reaches altitude 10° 05:33:13 10° 341° (NNW) 2,350 4.8 -11.2°
Maximum altitude 05:36:29 17° 302° (WNW) 1,888 4.0 -10.7°
Enters shadow 05:38:42 13° 273° (W) 2,100 4.1 -10.3°
